Watford City, ND

10:01 PM CST on December 04, 2016 (GMT -0600)
Watford City

Weather History for KS25 - March, 2013

Change the Weather History Date:

Monday, March 4, 2013

  Actual Average (KISN) Record (KISN)
Temperature  
Mean Temperature 20 °F 24 °F  
Max Temperature 28 °F 34 °F 66 °F (1987)
Min Temperature 12 °F 13 °F -26 °F (2003)
Degree Days  
Heating Degree Days 45 41  
Month to date heating degree days 168  
Since 1 July heating degree days 6936  
Cooling Degree Days 0 0  
Month to date cooling degree days 0  
Year to date cooling degree days 0  
Moisture  
Dew Point 18 °F    
Average Humidity 93    
Maximum Humidity 100    
Minimum Humidity 85    
Precipitation  
Precipitation 5.33 in 0.02 in 0.50 in (2013)
Month to date precipitation 0.08  
Year to date precipitation 1.06  
Sea Level Pressure  
Sea Level Pressure 29.85 in    
Wind  
Wind Speed 15 mph (North)    
Max Wind Speed 36 mph    
Max Gust Speed 45 mph    
Visibility 4 miles    
Events Rain , Snow    
T = Trace of Precipitation, MM = Missing Value Source: NWS Daily Summary

Daily Weather History Graph

Daily Weather History Graph

Search for Another Location

Airport or City:

Trip Planner

Search our weather history database for the weather conditions in past years. The results will help you decide how hot, cold, wet, or windy it might be!

Date:

Astronomy

Mar. 04, 2013 Rise Set
Actual Time 7:27 AM CST 6:42 PM CST
Civil Twilight 6:56 AM CST 7:13 PM CST
Nautical Twilight 6:20 AM CST 7:49 PM CST
Astronomical Twilight 5:44 AM CST 8:25 PM CST
Moon 1:57 AM CST (3/4) 11:07 AM CST (3/4)
Length of Visible Light 12h 17m
Length of Day
11h 15m
Waning Gibbous, 52% of the Moon is Illuminated
Mar 4
Waning Gibbous
Mar 4
Last Quarter
Mar 11
New
Mar 19
First Quarter
Mar 27
Full

Hourly Weather History & Observations

Time (CST) Temp. Windchill Dew Point Humidity Pressure Visibility Wind Dir Wind Speed Gust Speed Precip Events Conditions
12:15 AM 28.4 °F 20.4 °F 28.4 °F 100% 29.57 in 1.0 mi North 8.1 mph - 0.28 in Snow Light Snow
12:35 AM 28.4 °F 20.4 °F 28.4 °F 100% 29.57 in 0.5 mi North 8.1 mph - 0.95 in Snow Snow
12:55 AM 26.6 °F 18.2 °F 26.6 °F 100% 29.56 in 0.8 mi NNE 8.1 mph - 1.62 in Snow Light Snow
1:15 AM 26.6 °F 18.2 °F 26.6 °F 100% 29.57 in 2.5 mi North 8.1 mph - 0.03 in Snow Light Snow
1:35 AM 24.8 °F 16.9 °F 24.8 °F 100% 29.57 in 3.0 mi NNE 6.9 mph - 0.06 in Snow Light Snow
1:55 AM 24.8 °F 17.9 °F 24.8 °F 100% 29.58 in 5.0 mi NNE 5.8 mph - 0.08 in Snow Light Snow
2:15 AM 24.8 °F 19.1 °F 24.8 °F 100% 29.58 in 5.0 mi North 4.6 mph - N/A Snow Light Snow
2:55 AM 21.2 °F 13.6 °F 21.2 °F 100% 29.59 in 3.0 mi NNW 5.8 mph - 0.03 in Snow Light Snow
3:15 AM 23.0 °F 15.8 °F 23.0 °F 100% 29.59 in 5.0 mi NNW 5.8 mph - N/A Rain Light Freezing Rain
3:35 AM 23.0 °F 14.7 °F 23.0 °F 100% 29.58 in 5.0 mi North 6.9 mph - N/A Rain Light Freezing Rain
3:55 AM 23.0 °F 14.7 °F 23.0 °F 100% 29.59 in 5.0 mi NNW 6.9 mph - N/A   Mostly Cloudy
4:15 AM 23.0 °F 14.7 °F 23.0 °F 100% 29.60 in 2.0 mi NNW 6.9 mph - 0.05 in Snow Light Snow
4:35 AM 23.0 °F 15.8 °F 23.0 °F 100% 29.59 in 3.0 mi NNW 5.8 mph - 0.13 in Snow Light Snow
4:55 AM 21.2 °F 13.6 °F 21.2 °F 100% 29.60 in 3.0 mi NNW 5.8 mph - 0.16 in Snow Light Snow
5:15 AM 19.4 °F 11.5 °F 19.4 °F 100% 29.60 in 4.0 mi NNW 5.8 mph - N/A Snow Light Snow
5:55 AM 17.6 °F 12.3 °F 17.6 °F 100% 29.61 in 4.0 mi NNE 3.5 mph - N/A   Overcast
6:15 AM 21.2 °F 10.9 °F 19.4 °F 93% 29.61 in 5.0 mi North 9.2 mph - N/A Rain Light Freezing Rain
6:35 AM 21.2 °F 8.3 °F 21.2 °F 100% 29.62 in 10.0 mi NE 13.8 mph - N/A   Overcast
6:55 AM 21.2 °F 8.3 °F 19.4 °F 93% 29.62 in 10.0 mi NNE 13.8 mph - N/A   Overcast
7:15 AM 21.2 °F 8.3 °F 19.4 °F 93% 29.63 in 10.0 mi NNE 13.8 mph - N/A   Overcast
7:35 AM 21.2 °F 6.0 °F 19.4 °F 93% 29.64 in 9.0 mi NNE 19.6 mph 24.2 mph N/A   Overcast
7:55 AM 21.2 °F 7.3 °F 19.4 °F 93% 29.65 in 9.0 mi NNE 16.1 mph 24.2 mph N/A   Overcast
8:15 AM 21.2 °F 4.9 °F 19.4 °F 93% 29.66 in 7.0 mi NE 23.0 mph - N/A   Overcast
8:35 AM 21.2 °F 5.6 °F 19.4 °F 93% 29.67 in 10.0 mi NNE 20.7 mph 25.3 mph N/A   Overcast
8:55 AM 21.2 °F 6.0 °F 19.4 °F 93% 29.69 in 10.0 mi NNE 19.6 mph 25.3 mph N/A Rain Light Freezing Rain
9:15 AM 21.2 °F 6.0 °F 19.4 °F 93% 29.70 in 7.0 mi NNE 19.6 mph 24.2 mph N/A Rain Light Freezing Rain
9:35 AM 21.2 °F 6.0 °F 19.4 °F 93% 29.71 in 4.0 mi NNE 19.6 mph - N/A Rain Light Freezing Rain
9:55 AM 21.2 °F 5.6 °F 19.4 °F 93% 29.73 in 2.0 mi NNE 20.7 mph 25.3 mph 0.02 in   Overcast
10:15 AM 21.2 °F 6.0 °F 19.4 °F 93% 29.74 in 1.0 mi North 19.6 mph 26.5 mph 0.03 in Snow Light Snow
10:35 AM 21.2 °F 4.5 °F 19.4 °F 93% 29.75 in 0.8 mi North 24.2 mph 29.9 mph 0.11 in Rain Light Freezing Rain
10:55 AM 19.4 °F 1.8 °F 19.4 °F 100% 29.76 in 0.5 mi North 25.3 mph 33.4 mph 0.23 in Snow Snow
11:15 AM 19.4 °F 0.8 °F 17.6 °F 93% 29.78 in 1.0 mi North 28.8 mph 35.7 mph 0.06 in Snow Light Snow
11:35 AM 21.2 °F 4.2 °F 19.4 °F 93% 29.79 in 0.8 mi North 25.3 mph 32.2 mph 0.15 in Rain Light Freezing Rain
11:55 AM 21.2 °F 3.9 °F 17.6 °F 86% 29.80 in 0.8 mi North 26.5 mph 34.5 mph 0.23 in Snow Light Snow
12:15 PM 21.2 °F 3.3 °F 19.4 °F 93% 29.82 in 0.8 mi North 28.8 mph 35.7 mph 0.07 in Snow Light Snow
12:55 PM 21.2 °F 3.9 °F 19.4 °F 93% 29.84 in 0.5 mi North 26.5 mph 34.5 mph 0.39 in   Overcast
1:15 PM 21.2 °F 3.5 °F 17.6 °F 86% 29.85 in 0.5 mi North 27.6 mph 36.8 mph 0.11 in   Overcast
1:35 PM 19.4 °F 1.8 °F 17.6 °F 93% 29.87 in 0.5 mi North 25.3 mph 33.4 mph 0.38 in Snow Snow
1:55 PM 19.4 °F 1.4 °F 19.4 °F 100% 29.88 in 0.2 mi North 26.5 mph 32.2 mph 1.01 in Snow Heavy Snow
2:15 PM 19.4 °F 1.4 °F 17.6 °F 93% 29.89 in 0.2 mi North 26.5 mph 32.2 mph 0.30 in Snow Heavy Snow
2:35 PM 19.4 °F 0.5 °F 17.6 °F 93% 29.90 in 0.2 mi NNW 29.9 mph 36.8 mph 0.54 in Snow Heavy Snow
3:15 PM 17.6 °F -2.2 °F 15.8 °F 93% 29.93 in 0.2 mi North 31.1 mph 43.7 mph 0.16 in Snow Heavy Snow
3:35 PM 17.6 °F -1.9 °F 15.8 °F 93% 29.95 in 0.2 mi NNW 29.9 mph 41.4 mph 0.42 in Snow Heavy Snow
3:55 PM 17.6 °F -2.2 °F 15.8 °F 93% 29.97 in 0.2 mi NNW 31.1 mph 40.3 mph 0.59 in Snow Heavy Snow
4:15 PM 17.6 °F -2.5 °F 15.8 °F 93% 29.99 in 0.5 mi NNW 32.2 mph 41.4 mph 0.03 in Snow Snow
4:35 PM 17.6 °F -3.3 °F 15.8 °F 93% 30.00 in 0.5 mi NNW 35.7 mph 44.9 mph 0.07 in Snow Snow
4:55 PM 17.6 °F -2.2 °F 15.8 °F 93% 30.02 in 0.5 mi NNW 31.1 mph 39.1 mph 0.11 in Snow Snow
5:15 PM 17.6 °F -2.2 °F 15.8 °F 93% 30.04 in 0.5 mi NNW 31.1 mph 40.3 mph N/A Snow Snow
5:35 PM 17.6 °F -1.3 °F 15.8 °F 93% 30.05 in 0.8 mi NNW 27.6 mph 35.7 mph 0.02 in Snow Light Snow
5:55 PM 17.6 °F -2.5 °F 14.0 °F 86% 30.06 in 0.8 mi NNW 32.2 mph 40.3 mph 0.04 in Snow Light Snow
6:15 PM 17.6 °F -1.3 °F 14.0 °F 86% 30.08 in 1.2 mi NNW 27.6 mph 36.8 mph 0.01 in Snow Light Snow
6:35 PM 17.6 °F -0.6 °F 14.0 °F 86% 30.11 in 1.8 mi NNW 25.3 mph 35.7 mph 0.02 in Snow Light Snow
6:55 PM 17.6 °F -0.3 °F 14.0 °F 86% 30.12 in 1.5 mi NNW 24.2 mph 40.3 mph 0.03 in Snow Light Snow
7:15 PM 17.6 °F -1.0 °F 14.0 °F 86% 30.13 in 3.0 mi NNW 26.5 mph 31.1 mph N/A Snow Light Snow
7:35 PM 15.8 °F -3.4 °F 14.0 °F 93% 30.14 in 4.0 mi NNW 26.5 mph 35.7 mph 0.01 in Snow Light Snow
7:55 PM 15.8 °F -4.7 °F 14.0 °F 93% 30.15 in 5.0 mi NNW 31.1 mph 39.1 mph 0.01 in Snow Light Snow
8:35 PM 15.8 °F -3.1 °F 12.2 °F 86% 30.18 in 5.0 mi NNW 25.3 mph 31.1 mph N/A Snow Light Snow
8:55 PM 15.8 °F -1.9 °F 12.2 °F 86% 30.20 in 8.0 mi NNW 21.9 mph 27.6 mph N/A Snow Light Snow
9:15 PM 15.8 °F -1.9 °F 12.2 °F 86% 30.21 in 10.0 mi NNW 21.9 mph 26.5 mph N/A Snow Light Snow
9:35 PM 15.8 °F -1.9 °F 12.2 °F 86% 30.22 in 6.0 mi NNW 21.9 mph 26.5 mph 0.02 in Snow Light Snow
9:55 PM 15.8 °F -1.5 °F 12.2 °F 86% 30.22 in 5.0 mi NNW 20.7 mph 26.5 mph 0.08 in Snow Light Snow
10:15 PM 14.0 °F -4.7 °F 10.4 °F 86% 30.23 in 3.0 mi North 23.0 mph 28.8 mph 0.10 in Snow Light Snow
10:35 PM 14.0 °F -2.0 °F 10.4 °F 86% 30.24 in 8.0 mi NNW 16.1 mph - 0.14 in Snow Light Snow
10:55 PM 14.0 °F -1.4 °F 10.4 °F 86% 30.24 in 10.0 mi NNW 15.0 mph - 0.15 in Snow Light Snow
11:15 PM 12.2 °F -4.3 °F 8.6 °F 85% 30.25 in 10.0 mi NNW 16.1 mph 21.9 mph N/A Snow Light Snow
11:55 PM 12.2 °F -1.0 °F 8.6 °F 85% 30.26 in 10.0 mi NW 10.4 mph - 0.01 in Snow Light Snow